Colby, KS

3:08 AM CDT on May 24, 2017 (GMT -0500)
Shaltz

Weather History for KCBK - September, 2013

Change the Weather History Date:

Friday, September 27, 2013

  Actual Average (KGLD) Record (KGLD)
Temperature  
Mean Temperature 62 °F -  
Max Temperature 75 °F 76 °F 95 °F (1953)
Min Temperature 50 °F 45 °F 24 °F (1908)
Degree Days  
Heating Degree Days 2    
Growing Degree Days 12 (Base 50)    
Moisture  
Dew Point 59 °F    
Average Humidity 76    
Maximum Humidity 100    
Minimum Humidity 53    
Precipitation  
Precipitation 0.00 in - - ()
Sea Level Pressure  
Sea Level Pressure 29.74 in    
Wind  
Wind Speed 17 mph (South)    
Max Wind Speed 33 mph    
Max Gust Speed 46 mph    
Visibility 10 miles    
Events Rain    
Averages and records for this station are not official NWS values.
T = Trace of Precipitation, MM = Missing Value Source: NWS Daily Summary

Daily Weather History Graph

Daily Weather History Graph

Search for Another Location

Airport or City:

Trip Planner

Search our weather history database for the weather conditions in past years. The results will help you decide how hot, cold, wet, or windy it might be!

Date:

Astronomy

Sep. 27, 2013 Rise Set
Actual Time 7:36 AM CDT 7:32 PM CDT
Civil Twilight 7:10 AM CDT 7:59 PM CDT
Nautical Twilight 6:38 AM CDT 8:30 PM CDT
Astronomical Twilight 6:07 AM CDT 9:02 PM CDT
Moon 12:35 AM CDT (9/27) 3:10 PM CDT (9/27)
Length of Visible Light 12h 49m
Length of Day
11h 55m
Last Quarter, 45% of the Moon is Illuminated
Sep 27
Last Quarter
Oct 4
New
Oct 11
First Quarter
Oct 18
Full
Oct 26
Last Quarter

Hourly Weather History & Observations

Time (CDT) Temp. Dew Point Humidity Pressure Visibility Wind Dir Wind Speed Gust Speed Precip Events Conditions
12:15 AM 75.2 °F 59.0 °F 57% 29.69 in 10.0 mi SSE 19.6 mph 27.6 mph N/A   Clear
12:35 AM 75.2 °F 59.0 °F 57% 29.69 in 10.0 mi South 23.0 mph 32.2 mph N/A   Clear
12:55 AM 75.2 °F 59.0 °F 57% 29.69 in 10.0 mi South 21.9 mph 29.9 mph N/A   Clear
1:15 AM 75.2 °F 59.0 °F 57% 29.69 in 10.0 mi South 21.9 mph 33.4 mph N/A   Scattered Clouds
1:35 AM 75.2 °F 57.2 °F 53% 29.70 in 10.0 mi South 19.6 mph 29.9 mph N/A   Scattered Clouds
1:55 AM 75.2 °F 57.2 °F 53% 29.70 in 10.0 mi South 20.7 mph 31.1 mph N/A   Scattered Clouds
2:15 AM 73.4 °F 57.2 °F 57% 29.70 in 10.0 mi South 19.6 mph 27.6 mph N/A   Clear
2:35 AM 73.4 °F 57.2 °F 57% 29.71 in 10.0 mi South 16.1 mph 26.5 mph N/A   Clear
2:55 AM 71.6 °F 57.2 °F 60% 29.71 in 10.0 mi South 17.3 mph 24.2 mph N/A   Clear
3:15 AM 73.4 °F 57.2 °F 57% 29.70 in 10.0 mi South 19.6 mph 27.6 mph N/A   Scattered Clouds
3:35 AM 71.6 °F 57.2 °F 60% 29.70 in 10.0 mi South 21.9 mph 29.9 mph N/A   Clear
3:55 AM 71.6 °F 57.2 °F 60% 29.70 in 10.0 mi South 21.9 mph 31.1 mph N/A   Clear
4:15 AM 71.6 °F 57.2 °F 60% 29.70 in 10.0 mi South 20.7 mph 29.9 mph N/A   Clear
4:35 AM 71.6 °F 55.4 °F 57% 29.70 in 10.0 mi South 19.6 mph 28.8 mph N/A   Scattered Clouds
4:55 AM 71.6 °F 55.4 °F 57% 29.70 in 10.0 mi South 19.6 mph 28.8 mph N/A   Mostly Cloudy
5:15 AM 71.6 °F 55.4 °F 57% 29.71 in 10.0 mi South 18.4 mph 27.6 mph N/A   Scattered Clouds
5:35 AM 69.8 °F 55.4 °F 60% 29.70 in 10.0 mi South 19.6 mph 26.5 mph N/A   Clear
5:55 AM 69.8 °F 55.4 °F 60% 29.71 in 10.0 mi South 16.1 mph 20.7 mph N/A   Clear
6:15 AM 69.8 °F 55.4 °F 60% 29.73 in 10.0 mi South 16.1 mph 26.5 mph N/A   Clear
6:35 AM 68.0 °F 55.4 °F 64% 29.72 in 10.0 mi South 15.0 mph 21.9 mph N/A   Clear
6:55 AM 68.0 °F 55.4 °F 64% 29.73 in 10.0 mi South 15.0 mph 21.9 mph N/A   Clear
7:15 AM 68.0 °F 55.4 °F 64% 29.73 in 10.0 mi South 17.3 mph 21.9 mph N/A   Clear
7:35 AM 68.0 °F 55.4 °F 64% 29.73 in 10.0 mi South 16.1 mph 23.0 mph N/A   Clear
7:55 AM 66.2 °F 55.4 °F 68% 29.74 in 10.0 mi South 13.8 mph 20.7 mph N/A   Clear
8:15 AM 64.4 °F 55.4 °F 73% 29.75 in 10.0 mi SSW 11.5 mph - N/A   Clear
8:35 AM 68.0 °F 55.4 °F 64% 29.75 in 10.0 mi South 13.8 mph 19.6 mph N/A   Clear
8:55 AM 68.0 °F 55.4 °F 64% 29.75 in 10.0 mi South 13.8 mph 19.6 mph N/A   Clear
9:15 AM 68.0 °F 55.4 °F 64% 29.75 in 10.0 mi South 11.5 mph 17.3 mph N/A   Clear
9:35 AM 68.0 °F 57.2 °F 68% 29.75 in 10.0 mi South 11.5 mph - N/A   Clear
9:55 AM 69.8 °F 57.2 °F 64% 29.77 in 10.0 mi South 13.8 mph - N/A   Clear
10:15 AM 69.8 °F 59.0 °F 68% 29.76 in 10.0 mi SSW 8.1 mph 18.4 mph N/A   Scattered Clouds
10:35 AM 69.8 °F 59.0 °F 68% 29.77 in 10.0 mi West 9.2 mph - N/A Rain Light Rain
10:55 AM 68.0 °F 59.0 °F 73% 29.79 in 10.0 mi SSW 10.4 mph 17.3 mph N/A Rain Rain
11:15 AM 66.2 °F 60.8 °F 83% 29.78 in 10.0 mi SSW 10.4 mph - N/A Rain Light Rain
11:35 AM 66.2 °F 60.8 °F 83% 29.79 in 10.0 mi South 17.3 mph 21.9 mph N/A Rain Light Rain
11:55 AM 66.2 °F 60.8 °F 83% 29.78 in 10.0 mi SSW 12.7 mph - N/A Rain Light Rain
12:15 PM 64.4 °F 62.6 °F 94% 29.76 in 10.0 mi SW 11.5 mph - N/A Rain Light Rain
12:35 PM 66.2 °F 62.6 °F 88% 29.77 in 10.0 mi South 9.2 mph 20.7 mph N/A Rain Light Rain
12:55 PM 68.0 °F 62.6 °F 83% 29.79 in 10.0 mi SSW 6.9 mph - N/A   Mostly Cloudy
1:15 PM 68.0 °F 64.4 °F 88% 29.80 in 10.0 mi WSW 10.4 mph - N/A   Mostly Cloudy
1:35 PM 68.0 °F 62.6 °F 83% 29.79 in 10.0 mi WSW 9.2 mph - N/A Rain Light Rain
1:55 PM 68.0 °F 64.4 °F 88% 29.79 in 10.0 mi West 5.8 mph - N/A Rain Light Rain
2:15 PM 68.0 °F 64.4 °F 88% 29.77 in 10.0 mi West 3.5 mph - N/A Rain Light Rain
2:35 PM 66.2 °F 64.4 °F 94% 29.76 in 10.0 mi Calm Calm - N/A   Overcast
2:55 PM 68.0 °F 64.4 °F 88% 29.75 in 10.0 mi Calm Calm - N/A   Mostly Cloudy
3:15 PM 68.0 °F 64.4 °F 88% 29.74 in 10.0 mi Calm Calm - N/A   Mostly Cloudy
3:35 PM 69.8 °F 64.4 °F 83% 29.75 in 10.0 mi NE 3.5 mph - N/A Rain Light Rain
3:55 PM 68.0 °F 64.4 °F 88% 29.74 in 7.0 mi Calm Calm - N/A Rain Light Rain
4:15 PM 68.0 °F 64.4 °F 88% 29.75 in 2.0 mi SSE 8.1 mph - N/A Rain Rain
4:35 PM 68.0 °F 64.4 °F 88% 29.72 in 10.0 mi SE 16.1 mph - N/A Rain Light Rain
4:55 PM 68.0 °F 64.4 °F 88% 29.70 in 10.0 mi ESE 10.4 mph - N/A Rain Rain
5:15 PM 68.0 °F 64.4 °F 88% 29.70 in 10.0 mi ESE 16.1 mph 20.7 mph N/A   Scattered Clouds
5:35 PM 69.8 °F 66.2 °F 88% 29.68 in 10.0 mi SE 15.0 mph - N/A   Clear
5:55 PM 71.6 °F 64.4 °F 78% 29.66 in 10.0 mi SE 19.6 mph 24.2 mph N/A   Clear
6:15 PM 71.6 °F 64.4 °F 78% 29.66 in 10.0 mi SE 19.6 mph - N/A   Clear
6:35 PM 71.6 °F 64.4 °F 78% 29.66 in 10.0 mi SSE 18.4 mph 21.9 mph N/A   Clear
6:55 PM 71.6 °F 64.4 °F 78% 29.66 in 10.0 mi SSE 19.6 mph 24.2 mph N/A   Clear
7:15 PM 69.8 °F 64.4 °F 83% 29.67 in 10.0 mi SE 16.1 mph 23.0 mph N/A   Clear
7:35 PM 68.0 °F 64.4 °F 88% 29.67 in 10.0 mi SE 13.8 mph 21.9 mph N/A   Clear
7:55 PM 68.0 °F 64.4 °F 88% 29.67 in 10.0 mi SSE 13.8 mph - N/A   Clear
8:15 PM 68.0 °F 64.4 °F 88% 29.68 in 10.0 mi SSE 13.8 mph 21.9 mph N/A   Scattered Clouds
8:35 PM 64.4 °F 57.2 °F 77% 29.73 in 10.0 mi NW 33.4 mph 46.0 mph N/A   Mostly Cloudy
8:55 PM 55.4 °F 55.4 °F 100% 29.75 in 7.0 mi NW 15.0 mph 24.2 mph N/A Rain Rain
9:15 PM 53.6 °F 53.6 °F 100% 29.74 in 5.0 mi NNW 24.2 mph 29.9 mph N/A Rain Rain
9:35 PM 51.8 °F 51.8 °F 100% 29.79 in 10.0 mi NNW 21.9 mph 32.2 mph N/A   Overcast
9:55 PM 51.8 °F 51.8 °F 100% 29.82 in 10.0 mi NNW 20.7 mph 32.2 mph N/A   Overcast
10:15 PM 51.8 °F 51.8 °F 100% 29.87 in 5.0 mi NNW 20.7 mph 28.8 mph N/A Rain Heavy Rain
10:55 PM 50.0 °F 50.0 °F 100% 29.86 in 10.0 mi NW 23.0 mph 31.1 mph N/A   Mostly Cloudy
11:15 PM 50.0 °F 50.0 °F 100% 29.85 in 10.0 mi NW 26.5 mph 32.2 mph N/A   Overcast
11:35 PM 50.0 °F 48.2 °F 94% 29.88 in 10.0 mi NNW 26.5 mph 34.5 mph N/A   Overcast
11:55 PM 50.0 °F 48.2 °F 94% 29.89 in 10.0 mi NNW 21.9 mph 33.4 mph N/A   Overcast